Year,Month,Day,Hour,Minute,Value (Times are PST for temperature in C)
2013,10,03,00,00,8.40
2013,10,03,00,01,8.40
2013,10,03,00,02,8.40
2013,10,03,00,03,8.40
2013,10,03,00,04,8.40
2013,10,03,00,05,8.30
2013,10,03,00,06,8.30
2013,10,03,00,07,8.30
2013,10,03,00,08,8.30
2013,10,03,00,09,8.30
2013,10,03,00,10,8.30
2013,10,03,00,11,8.30
2013,10,03,00,12,8.30
2013,10,03,00,13,8.30
2013,10,03,00,14,8.30
2013,10,03,00,15,8.30
2013,10,03,00,16,8.30
2013,10,03,00,17,8.30
2013,10,03,00,18,8.30
2013,10,03,00,19,8.30
2013,10,03,00,20,8.30
2013,10,03,00,21,8.30
2013,10,03,00,22,8.30
2013,10,03,00,23,8.30
2013,10,03,00,24,8.30
2013,10,03,00,25,8.30
2013,10,03,00,26,8.30
2013,10,03,00,27,8.30
2013,10,03,00,28,8.30
2013,10,03,00,29,8.30
2013,10,03,00,30,8.30
2013,10,03,00,31,8.30
2013,10,03,00,32,8.30
2013,10,03,00,33,8.40
2013,10,03,00,34,8.40
2013,10,03,00,35,8.40
2013,10,03,00,36,8.40
2013,10,03,00,37,8.40
2013,10,03,00,38,8.40
2013,10,03,00,39,8.40
2013,10,03,00,40,8.40
2013,10,03,00,41,8.40
2013,10,03,00,42,8.40
2013,10,03,00,43,8.40
2013,10,03,00,44,8.40
2013,10,03,00,45,8.40
2013,10,03,00,46,8.40
2013,10,03,00,47,8.40
2013,10,03,00,48,8.40
2013,10,03,00,49,8.40
2013,10,03,00,50,8.40
2013,10,03,00,51,8.40
2013,10,03,00,52,8.40
2013,10,03,00,53,8.40
2013,10,03,00,54,8.40
2013,10,03,00,55,8.40
2013,10,03,00,56,8.50
2013,10,03,00,57,8.50
2013,10,03,00,58,8.50
2013,10,03,00,59,8.50
2013,10,03,01,00,8.50
2013,10,03,01,01,8.50
2013,10,03,01,02,8.40
2013,10,03,01,03,8.40
2013,10,03,01,04,8.40
2013,10,03,01,05,8.40
2013,10,03,01,06,8.40
2013,10,03,01,07,8.40
2013,10,03,01,08,8.40
2013,10,03,01,09,8.40
2013,10,03,01,10,8.40
2013,10,03,01,11,8.40
2013,10,03,01,12,8.40
2013,10,03,01,13,8.40
2013,10,03,01,14,8.40
2013,10,03,01,15,8.40
2013,10,03,01,16,8.40
2013,10,03,01,17,8.40
2013,10,03,01,18,8.40
2013,10,03,01,19,8.40
2013,10,03,01,20,8.40
2013,10,03,01,21,8.40
2013,10,03,01,22,8.40
2013,10,03,01,23,8.40
2013,10,03,01,24,8.40
2013,10,03,01,25,8.40
2013,10,03,01,26,8.40
2013,10,03,01,27,8.40
2013,10,03,01,28,8.40
2013,10,03,01,29,8.40
2013,10,03,01,30,8.40
2013,10,03,01,31,8.40
2013,10,03,01,32,8.40
2013,10,03,01,33,8.40
2013,10,03,01,34,8.40
2013,10,03,01,35,8.40
2013,10,03,01,36,8.40
2013,10,03,01,37,8.40
2013,10,03,01,38,8.40
2013,10,03,01,39,8.40
2013,10,03,01,40,8.40
2013,10,03,01,41,8.40
2013,10,03,01,42,8.40
2013,10,03,01,43,8.40
2013,10,03,01,44,8.40
2013,10,03,01,45,8.40
2013,10,03,01,46,8.40
2013,10,03,01,47,8.40
2013,10,03,01,48,8.40
2013,10,03,01,49,8.40
2013,10,03,01,50,8.40
2013,10,03,01,51,8.40
2013,10,03,01,52,8.40
2013,10,03,01,53,8.40
2013,10,03,01,54,8.40
2013,10,03,01,55,8.40
2013,10,03,01,56,8.40
2013,10,03,01,57,8.40
2013,10,03,01,58,8.40
2013,10,03,01,59,8.40
2013,10,03,02,00,8.40
2013,10,03,02,01,8.40
2013,10,03,02,02,8.40
2013,10,03,02,03,8.40
2013,10,03,02,04,8.40
2013,10,03,02,05,8.40
2013,10,03,02,06,8.40
2013,10,03,02,07,8.40
2013,10,03,02,08,8.40
2013,10,03,02,09,8.40
2013,10,03,02,10,8.40
2013,10,03,02,11,8.40
2013,10,03,02,12,8.40
2013,10,03,02,13,8.40
2013,10,03,02,14,8.40
2013,10,03,02,15,8.40
2013,10,03,02,16,8.40
2013,10,03,02,17,8.40
2013,10,03,02,18,8.40
2013,10,03,02,19,8.40
2013,10,03,02,20,8.40
2013,10,03,02,21,8.30
2013,10,03,02,22,8.30
2013,10,03,02,23,8.30
2013,10,03,02,24,8.30
2013,10,03,02,25,8.30
2013,10,03,02,26,8.30
2013,10,03,02,27,8.30
2013,10,03,02,28,8.30
2013,10,03,02,29,8.40
2013,10,03,02,30,8.30
2013,10,03,02,31,8.30
2013,10,03,02,32,8.30
2013,10,03,02,33,8.30
2013,10,03,02,34,8.30
2013,10,03,02,35,8.30
2013,10,03,02,36,8.30
2013,10,03,02,37,8.30
2013,10,03,02,38,8.30
2013,10,03,02,39,8.30
2013,10,03,02,40,8.30
2013,10,03,02,41,8.30
2013,10,03,02,42,8.30
2013,10,03,02,43,8.30
2013,10,03,02,44,8.30
2013,10,03,02,45,8.30
2013,10,03,02,46,8.20
2013,10,03,02,47,8.20
2013,10,03,02,48,8.20
2013,10,03,02,49,8.20
2013,10,03,02,50,8.20
2013,10,03,02,51,8.20
2013,10,03,02,52,8.20
2013,10,03,02,53,8.20
2013,10,03,02,54,8.30
2013,10,03,02,55,8.30
2013,10,03,02,56,8.30
2013,10,03,02,57,8.30
2013,10,03,02,58,8.30
2013,10,03,02,59,8.30
2013,10,03,03,00,8.30
2013,10,03,03,01,8.30
2013,10,03,03,02,8.30
2013,10,03,03,03,8.30
2013,10,03,03,04,8.30
2013,10,03,03,05,8.30
2013,10,03,03,06,8.30
2013,10,03,03,07,8.30
2013,10,03,03,08,8.30
2013,10,03,03,09,8.30
2013,10,03,03,10,8.30
2013,10,03,03,11,8.30
2013,10,03,03,12,8.30
2013,10,03,03,13,8.30
2013,10,03,03,14,8.30
2013,10,03,03,15,8.30
2013,10,03,03,16,8.30
2013,10,03,03,17,8.30
2013,10,03,03,18,8.30
2013,10,03,03,19,8.30
2013,10,03,03,20,8.30
2013,10,03,03,21,8.30
2013,10,03,03,22,8.30
2013,10,03,03,23,8.30
2013,10,03,03,24,8.30
2013,10,03,03,25,8.30
2013,10,03,03,26,8.30
2013,10,03,03,27,8.30
2013,10,03,03,28,8.30
2013,10,03,03,29,8.30
2013,10,03,03,30,8.30
2013,10,03,03,31,8.20
2013,10,03,03,32,8.20
2013,10,03,03,33,8.20
2013,10,03,03,34,8.20
2013,10,03,03,35,8.20
2013,10,03,03,36,8.20
2013,10,03,03,37,8.20
2013,10,03,03,38,8.20
2013,10,03,03,39,8.20
2013,10,03,03,40,8.20
2013,10,03,03,41,8.10
2013,10,03,03,42,8.10
2013,10,03,03,43,8.10
2013,10,03,03,44,8.10
2013,10,03,03,45,8.10
2013,10,03,03,46,8.10
2013,10,03,03,47,8.00
2013,10,03,03,48,8.00
2013,10,03,03,49,8.00
2013,10,03,03,50,8.00
2013,10,03,03,51,7.90
2013,10,03,03,52,7.90
2013,10,03,03,53,7.90
2013,10,03,03,54,7.90
2013,10,03,03,55,7.90
2013,10,03,03,56,7.90
2013,10,03,03,57,7.80
2013,10,03,03,58,7.80
2013,10,03,03,59,7.80
2013,10,03,04,00,7.80
2013,10,03,04,01,7.70
2013,10,03,04,02,7.70
2013,10,03,04,03,7.70
2013,10,03,04,04,7.70
2013,10,03,04,05,7.70
2013,10,03,04,06,7.70
2013,10,03,04,07,7.70
2013,10,03,04,08,7.70
2013,10,03,04,09,7.60
2013,10,03,04,10,7.60
2013,10,03,04,11,7.60
2013,10,03,04,12,7.60
2013,10,03,04,13,7.60
2013,10,03,04,14,7.60
2013,10,03,04,15,7.60
2013,10,03,04,16,7.60
2013,10,03,04,17,7.60
2013,10,03,04,18,7.60
2013,10,03,04,19,7.60
2013,10,03,04,20,7.60
2013,10,03,04,21,7.60
2013,10,03,04,22,7.60
2013,10,03,04,23,7.60
2013,10,03,04,24,7.60
2013,10,03,04,25,7.60
2013,10,03,04,26,7.60
2013,10,03,04,27,7.60
2013,10,03,04,28,7.60
2013,10,03,04,29,7.60
2013,10,03,04,30,7.60
2013,10,03,04,31,7.60
2013,10,03,04,32,7.60
2013,10,03,04,33,7.60
2013,10,03,04,34,7.60
2013,10,03,04,35,7.60
2013,10,03,04,36,7.60
2013,10,03,04,37,7.60
2013,10,03,04,38,7.60
2013,10,03,04,39,7.60
2013,10,03,04,40,7.60
2013,10,03,04,41,7.60
2013,10,03,04,42,7.60
2013,10,03,04,43,7.60
2013,10,03,04,44,7.60
2013,10,03,04,45,7.60
2013,10,03,04,46,7.60
2013,10,03,04,47,7.60
2013,10,03,04,48,7.60
2013,10,03,04,49,7.60
2013,10,03,04,50,7.60
2013,10,03,04,51,7.60
2013,10,03,04,52,7.60
2013,10,03,04,53,7.60
2013,10,03,04,54,7.60
2013,10,03,04,55,7.60
2013,10,03,04,56,7.60
2013,10,03,04,57,7.60
2013,10,03,04,58,7.60
2013,10,03,04,59,7.60
2013,10,03,05,00,7.60
2013,10,03,05,01,7.60
2013,10,03,05,02,7.60
2013,10,03,05,03,7.60
2013,10,03,05,04,7.60
2013,10,03,05,05,7.60
2013,10,03,05,06,7.60
2013,10,03,05,07,7.50
2013,10,03,05,08,7.50
2013,10,03,05,09,7.50
2013,10,03,05,10,7.50
2013,10,03,05,11,7.50
2013,10,03,05,12,7.40
2013,10,03,05,13,7.40
2013,10,03,05,14,7.40
2013,10,03,05,15,7.40
2013,10,03,05,16,7.40
2013,10,03,05,17,7.30
2013,10,03,05,18,7.30
2013,10,03,05,19,7.30
2013,10,03,05,20,7.30
2013,10,03,05,21,7.30
2013,10,03,05,22,7.30
2013,10,03,05,23,7.20
2013,10,03,05,24,7.20
2013,10,03,05,25,7.20
2013,10,03,05,26,7.20
2013,10,03,05,27,7.20
2013,10,03,05,28,7.20
2013,10,03,05,29,7.20
2013,10,03,05,30,7.20
2013,10,03,05,31,7.20
2013,10,03,05,32,7.10
2013,10,03,05,33,7.10
2013,10,03,05,34,7.10
2013,10,03,05,35,7.00
2013,10,03,05,36,7.00
2013,10,03,05,37,7.00
2013,10,03,05,38,6.90
2013,10,03,05,39,6.90
2013,10,03,05,40,6.90
2013,10,03,05,41,6.90
2013,10,03,05,42,6.80
2013,10,03,05,43,6.80
2013,10,03,05,44,6.80
2013,10,03,05,45,6.80
2013,10,03,05,46,6.80
2013,10,03,05,47,6.80
2013,10,03,05,48,6.80
2013,10,03,05,49,6.70
2013,10,03,05,50,6.70
2013,10,03,05,51,6.70
2013,10,03,05,52,6.70
2013,10,03,05,53,6.70
2013,10,03,05,54,6.70
2013,10,03,05,55,6.70
2013,10,03,05,56,6.70
2013,10,03,05,57,6.70
2013,10,03,05,58,6.70
2013,10,03,05,59,6.60
2013,10,03,06,00,6.60
2013,10,03,06,01,6.60
2013,10,03,06,02,6.60
2013,10,03,06,03,6.50
2013,10,03,06,04,6.50
2013,10,03,06,05,6.40
2013,10,03,06,06,6.40
2013,10,03,06,07,6.40
2013,10,03,06,08,6.30
2013,10,03,06,09,6.30
2013,10,03,06,10,6.30
2013,10,03,06,11,6.30
2013,10,03,06,12,6.20
2013,10,03,06,13,6.20
2013,10,03,06,14,6.20
2013,10,03,06,15,6.20
2013,10,03,06,16,6.10
2013,10,03,06,17,6.10
2013,10,03,06,18,6.10
2013,10,03,06,19,6.10
2013,10,03,06,20,6.10
2013,10,03,06,21,6.10
2013,10,03,06,22,6.10
2013,10,03,06,23,6.10
2013,10,03,06,24,6.10
2013,10,03,06,25,6.10
2013,10,03,06,26,6.10
2013,10,03,06,27,6.00
2013,10,03,06,28,6.00
2013,10,03,06,29,5.90
2013,10,03,06,30,5.90
2013,10,03,06,31,5.90
2013,10,03,06,32,5.80
2013,10,03,06,33,5.80
2013,10,03,06,34,5.80
2013,10,03,06,35,5.80
2013,10,03,06,36,5.80
2013,10,03,06,37,5.80
2013,10,03,06,38,5.80
2013,10,03,06,39,5.80
2013,10,03,06,40,5.70
2013,10,03,06,41,5.70
2013,10,03,06,42,5.70
2013,10,03,06,43,5.70
2013,10,03,06,44,5.60
2013,10,03,06,45,5.60
2013,10,03,06,46,5.60
2013,10,03,06,47,5.60
2013,10,03,06,48,5.60
2013,10,03,06,49,5.60
2013,10,03,06,50,5.60
2013,10,03,06,51,5.60
2013,10,03,06,52,5.60
2013,10,03,06,53,5.60
2013,10,03,06,54,5.60
2013,10,03,06,55,5.60
2013,10,03,06,56,5.60
2013,10,03,06,57,5.60
2013,10,03,06,58,5.60
2013,10,03,06,59,5.60
2013,10,03,07,00,5.60
2013,10,03,07,01,5.50
2013,10,03,07,02,5.50
2013,10,03,07,03,5.50
2013,10,03,07,04,5.50
2013,10,03,07,05,5.40
2013,10,03,07,06,5.40
2013,10,03,07,07,5.40
2013,10,03,07,08,5.40
2013,10,03,07,09,5.40
2013,10,03,07,10,5.40
2013,10,03,07,11,5.30
2013,10,03,07,12,5.30
2013,10,03,07,13,5.30
2013,10,03,07,14,5.30
2013,10,03,07,15,5.30
2013,10,03,07,16,5.30
2013,10,03,07,17,5.30
2013,10,03,07,18,5.30
2013,10,03,07,19,5.30
2013,10,03,07,20,5.30
2013,10,03,07,21,5.30
2013,10,03,07,22,5.30
2013,10,03,07,23,5.30
2013,10,03,07,24,5.30
2013,10,03,07,25,5.30
2013,10,03,07,26,5.30
2013,10,03,07,27,5.30
2013,10,03,07,28,5.30
2013,10,03,07,29,5.30
2013,10,03,07,30,5.30
2013,10,03,07,31,5.30
2013,10,03,07,32,5.30
2013,10,03,07,33,5.30
2013,10,03,07,34,5.30
2013,10,03,07,35,5.30
2013,10,03,07,36,5.30
2013,10,03,07,37,5.30
2013,10,03,07,38,5.30
2013,10,03,07,39,5.20
2013,10,03,07,40,5.20
2013,10,03,07,41,5.20
2013,10,03,07,42,5.20
2013,10,03,07,43,5.20
2013,10,03,07,44,5.10
2013,10,03,07,45,5.10
2013,10,03,07,46,5.10
2013,10,03,07,47,5.10
2013,10,03,07,48,5.10
2013,10,03,07,49,5.10
2013,10,03,07,50,5.20
2013,10,03,07,51,5.20
2013,10,03,07,52,5.20
2013,10,03,07,53,5.20
2013,10,03,07,54,5.20
2013,10,03,07,55,5.20
2013,10,03,07,56,5.30
2013,10,03,07,57,5.30
2013,10,03,07,58,5.40
2013,10,03,07,59,5.50
2013,10,03,08,00,5.60
2013,10,03,08,01,5.60
2013,10,03,08,02,5.70
2013,10,03,08,03,5.70
2013,10,03,08,04,5.80
2013,10,03,08,05,5.80
2013,10,03,08,06,5.90
2013,10,03,08,07,6.00
2013,10,03,08,08,5.90
2013,10,03,08,09,5.90
2013,10,03,08,10,5.90
2013,10,03,08,11,5.80
2013,10,03,08,12,5.80
2013,10,03,08,13,5.70
2013,10,03,08,14,5.70
2013,10,03,08,15,5.70
2013,10,03,08,16,5.70
2013,10,03,08,17,5.80
2013,10,03,08,18,5.80
2013,10,03,08,19,5.90
2013,10,03,08,20,6.00
2013,10,03,08,21,6.10
2013,10,03,08,22,6.20
2013,10,03,08,23,6.30
2013,10,03,08,24,6.40
2013,10,03,08,25,6.50
2013,10,03,08,26,6.60
2013,10,03,08,27,6.70
2013,10,03,08,28,6.70
2013,10,03,08,29,6.70
2013,10,03,08,30,6.80
2013,10,03,08,31,6.80
2013,10,03,08,32,6.80
2013,10,03,08,33,6.90
2013,10,03,08,34,6.90
2013,10,03,08,35,7.00
2013,10,03,08,36,7.00
2013,10,03,08,37,7.10
2013,10,03,08,38,7.20
2013,10,03,08,39,7.20
2013,10,03,08,40,7.30
2013,10,03,08,41,7.30
2013,10,03,08,42,7.40
2013,10,03,08,43,7.40
2013,10,03,08,44,7.50
2013,10,03,08,45,7.50
2013,10,03,08,46,7.50
2013,10,03,08,47,7.40
2013,10,03,08,48,7.40
2013,10,03,08,49,7.40
2013,10,03,08,50,7.40
2013,10,03,08,51,7.50
2013,10,03,08,52,7.50
2013,10,03,08,53,7.60
2013,10,03,08,54,7.60
2013,10,03,08,55,7.70
2013,10,03,08,56,7.70
2013,10,03,08,57,7.80
2013,10,03,08,58,7.90
2013,10,03,08,59,7.90
2013,10,03,09,00,8.00
2013,10,03,09,01,8.10
2013,10,03,09,02,8.10
2013,10,03,09,03,8.20
2013,10,03,09,04,8.30
2013,10,03,09,05,8.30
2013,10,03,09,06,8.30
2013,10,03,09,07,8.40
2013,10,03,09,08,8.40
2013,10,03,09,09,8.50
2013,10,03,09,10,8.50
2013,10,03,09,11,8.60
2013,10,03,09,12,8.60
2013,10,03,09,13,8.70
2013,10,03,09,14,8.70
2013,10,03,09,15,8.60
2013,10,03,09,16,8.60
2013,10,03,09,17,8.70
2013,10,03,09,18,8.70
2013,10,03,09,19,8.70
2013,10,03,09,20,8.70
2013,10,03,09,21,8.80
2013,10,03,09,22,8.80
2013,10,03,09,23,8.90
2013,10,03,09,24,9.00
2013,10,03,09,25,9.00
2013,10,03,09,26,9.10
2013,10,03,09,27,9.10
2013,10,03,09,28,9.10
2013,10,03,09,29,9.20
2013,10,03,09,30,9.20
2013,10,03,09,31,9.20
2013,10,03,09,32,9.20
2013,10,03,09,33,9.20
2013,10,03,09,34,9.20
2013,10,03,09,35,9.30
2013,10,03,09,36,9.30
2013,10,03,09,37,9.30
2013,10,03,09,38,9.30
2013,10,03,09,39,9.40
2013,10,03,09,40,9.50
2013,10,03,09,41,9.50
2013,10,03,09,42,9.60
2013,10,03,09,43,9.70
2013,10,03,09,44,9.70
2013,10,03,09,45,9.80
2013,10,03,09,46,9.80
2013,10,03,09,47,9.90
2013,10,03,09,48,9.90
2013,10,03,09,49,10.00
2013,10,03,09,50,10.00
2013,10,03,09,51,10.10
2013,10,03,09,52,10.10
2013,10,03,09,53,10.10
2013,10,03,09,54,10.10
2013,10,03,09,55,10.10
2013,10,03,09,56,10.10
2013,10,03,09,57,10.10
2013,10,03,09,58,10.20
2013,10,03,09,59,10.20
2013,10,03,10,00,10.30
2013,10,03,10,01,10.40
2013,10,03,10,02,10.40
2013,10,03,10,03,10.50
2013,10,03,10,04,10.60
2013,10,03,10,05,10.60
2013,10,03,10,06,10.60
2013,10,03,10,07,10.70
2013,10,03,10,08,10.70
2013,10,03,10,09,10.70
2013,10,03,10,10,10.70
2013,10,03,10,11,10.80
2013,10,03,10,12,10.80
2013,10,03,10,13,10.80
2013,10,03,10,14,10.90
2013,10,03,10,15,10.90
2013,10,03,10,16,10.90
2013,10,03,10,17,10.90
2013,10,03,10,18,10.90
2013,10,03,10,19,11.00
2013,10,03,10,20,11.00
2013,10,03,10,21,11.10
2013,10,03,10,22,11.10
2013,10,03,10,23,11.10
2013,10,03,10,24,11.20
2013,10,03,10,25,11.20
2013,10,03,10,26,11.30
2013,10,03,10,27,11.30
2013,10,03,10,28,11.40
2013,10,03,10,29,11.40
2013,10,03,10,30,11.30
2013,10,03,10,31,11.30
2013,10,03,10,32,11.20
2013,10,03,10,33,11.20
2013,10,03,10,34,11.10
2013,10,03,10,35,11.10
2013,10,03,10,36,11.00
2013,10,03,10,37,11.00
2013,10,03,10,38,11.00
2013,10,03,10,39,11.10
2013,10,03,10,40,11.10
2013,10,03,10,41,11.20
2013,10,03,10,42,11.20
2013,10,03,10,43,11.30
2013,10,03,10,44,11.40
2013,10,03,10,45,11.40
2013,10,03,10,46,11.50
2013,10,03,10,47,11.50
2013,10,03,10,48,11.60
2013,10,03,10,49,11.70
2013,10,03,10,50,11.70
2013,10,03,10,51,11.70
2013,10,03,10,52,11.70
2013,10,03,10,53,11.70
2013,10,03,10,54,11.70
2013,10,03,10,55,11.70
2013,10,03,10,56,11.70
2013,10,03,10,57,11.70
2013,10,03,10,58,11.70
2013,10,03,10,59,11.70
2013,10,03,11,00,11.80
2013,10,03,11,01,11.80
2013,10,03,11,02,11.90
2013,10,03,11,03,11.90
2013,10,03,11,04,12.00
2013,10,03,11,05,12.00
2013,10,03,11,06,12.10
2013,10,03,11,07,12.00
2013,10,03,11,08,11.90
2013,10,03,11,09,11.90
2013,10,03,11,10,11.90
2013,10,03,11,11,11.90
2013,10,03,11,12,11.90
2013,10,03,11,13,12.00
2013,10,03,11,14,12.00
2013,10,03,11,15,12.10
2013,10,03,11,16,12.10
2013,10,03,11,17,12.10
2013,10,03,11,18,12.20
2013,10,03,11,19,12.20
2013,10,03,11,20,12.20
2013,10,03,11,21,12.20
2013,10,03,11,22,12.20
2013,10,03,11,23,12.20
2013,10,03,11,24,12.30
2013,10,03,11,25,12.30
2013,10,03,11,26,12.30
2013,10,03,11,27,12.30
2013,10,03,11,28,12.20
2013,10,03,11,29,12.20
2013,10,03,11,30,12.10
2013,10,03,11,31,12.00
2013,10,03,11,32,11.90
2013,10,03,11,33,11.90
2013,10,03,11,34,12.00
2013,10,03,11,35,12.00
2013,10,03,11,36,12.00
2013,10,03,11,37,12.10
2013,10,03,11,38,12.10
2013,10,03,11,39,12.10
2013,10,03,11,40,12.10
2013,10,03,11,41,12.00
2013,10,03,11,42,12.00
2013,10,03,11,43,12.00
2013,10,03,11,44,11.90
2013,10,03,11,45,11.90
2013,10,03,11,46,11.90
2013,10,03,11,47,11.90
2013,10,03,11,48,11.90
2013,10,03,11,49,12.00
2013,10,03,11,50,12.00
2013,10,03,11,51,12.00
2013,10,03,11,52,11.90
2013,10,03,11,53,11.90
2013,10,03,11,54,11.90
2013,10,03,11,55,11.80
2013,10,03,11,56,11.80
2013,10,03,11,57,11.80
2013,10,03,11,58,11.70
2013,10,03,11,59,11.70
2013,10,03,12,00,11.70
2013,10,03,12,01,11.70
2013,10,03,12,02,11.70
2013,10,03,12,03,11.70
2013,10,03,12,04,11.70
2013,10,03,12,05,11.70
2013,10,03,12,06,11.70
2013,10,03,12,07,11.70
2013,10,03,12,08,11.80
2013,10,03,12,09,11.80
2013,10,03,12,10,11.80
2013,10,03,12,11,11.90
2013,10,03,12,12,11.90
2013,10,03,12,13,12.00
2013,10,03,12,14,12.00
2013,10,03,12,15,12.10
2013,10,03,12,16,12.10
2013,10,03,12,17,12.20
2013,10,03,12,18,12.30
2013,10,03,12,19,12.30
2013,10,03,12,20,12.40
2013,10,03,12,21,12.40
2013,10,03,12,22,12.40
2013,10,03,12,23,12.40
2013,10,03,12,24,12.50
2013,10,03,12,25,12.50
2013,10,03,12,26,12.60
2013,10,03,12,27,12.60
2013,10,03,12,28,12.60
2013,10,03,12,29,12.70
2013,10,03,12,30,12.70
2013,10,03,12,31,12.80
2013,10,03,12,32,12.80
2013,10,03,12,33,12.80
2013,10,03,12,34,12.80
2013,10,03,12,35,12.80
2013,10,03,12,36,12.80
2013,10,03,12,37,12.90
2013,10,03,12,38,12.90
2013,10,03,12,39,12.90
2013,10,03,12,40,12.90
2013,10,03,12,41,12.90
2013,10,03,12,42,12.90
2013,10,03,12,43,12.90
2013,10,03,12,44,12.90
2013,10,03,12,45,12.90
2013,10,03,12,46,12.90
2013,10,03,12,47,12.90
2013,10,03,12,48,12.90
2013,10,03,12,49,13.00
2013,10,03,12,50,13.00
2013,10,03,12,51,13.10
2013,10,03,12,52,13.10
2013,10,03,12,53,13.10
2013,10,03,12,54,13.10
2013,10,03,12,55,13.10
2013,10,03,12,56,13.10
2013,10,03,12,57,13.20
2013,10,03,12,58,13.10
2013,10,03,12,59,13.10
2013,10,03,13,00,13.10
2013,10,03,13,01,13.10
2013,10,03,13,02,13.20
2013,10,03,13,03,13.30
2013,10,03,13,04,13.30
2013,10,03,13,05,13.20
2013,10,03,13,06,13.20
2013,10,03,13,07,13.20
2013,10,03,13,08,13.10
2013,10,03,13,09,13.10
2013,10,03,13,10,13.10
2013,10,03,13,11,13.10
2013,10,03,13,12,13.10
2013,10,03,13,13,13.00
2013,10,03,13,14,13.00
2013,10,03,13,15,12.90
2013,10,03,13,16,12.90
2013,10,03,13,17,12.90
2013,10,03,13,18,12.90
2013,10,03,13,19,12.90
2013,10,03,13,20,12.80
2013,10,03,13,21,12.80
2013,10,03,13,22,12.80
2013,10,03,13,23,12.80
2013,10,03,13,24,12.80
2013,10,03,13,25,12.80
2013,10,03,13,26,12.80
2013,10,03,13,27,12.80
2013,10,03,13,28,12.90
2013,10,03,13,29,12.90
2013,10,03,13,30,12.90
2013,10,03,13,31,12.80
2013,10,03,13,32,12.80
2013,10,03,13,33,12.70
2013,10,03,13,34,12.70
2013,10,03,13,35,12.70
2013,10,03,13,36,12.70
2013,10,03,13,37,12.70
2013,10,03,13,38,12.80
2013,10,03,13,39,12.90
2013,10,03,13,40,13.00
2013,10,03,13,41,13.10
2013,10,03,13,42,13.10
2013,10,03,13,43,13.10
2013,10,03,13,44,13.20
2013,10,03,13,45,13.30
2013,10,03,13,46,13.30
2013,10,03,13,47,13.40
2013,10,03,13,48,13.40
2013,10,03,13,49,13.50
2013,10,03,13,50,13.50
2013,10,03,13,51,13.60
2013,10,03,13,52,13.70
2013,10,03,13,53,13.70
2013,10,03,13,54,13.70
2013,10,03,13,55,13.70
2013,10,03,13,56,13.80
2013,10,03,13,57,13.80
2013,10,03,13,58,13.80
2013,10,03,13,59,13.90
2013,10,03,14,00,13.90
2013,10,03,14,01,13.80
2013,10,03,14,02,13.70
2013,10,03,14,03,13.70
2013,10,03,14,04,13.60
2013,10,03,14,05,13.50
2013,10,03,14,06,13.40
2013,10,03,14,07,13.40
2013,10,03,14,08,13.30
2013,10,03,14,09,13.20
2013,10,03,14,10,13.10
2013,10,03,14,11,13.10
2013,10,03,14,12,13.10
2013,10,03,14,13,13.10
2013,10,03,14,14,13.20
2013,10,03,14,15,13.20
2013,10,03,14,16,13.10
2013,10,03,14,17,13.10
2013,10,03,14,18,13.10
2013,10,03,14,19,13.10
2013,10,03,14,20,13.10
2013,10,03,14,21,13.10
2013,10,03,14,22,13.10
2013,10,03,14,23,13.10
2013,10,03,14,24,13.20
2013,10,03,14,25,13.20
2013,10,03,14,26,13.20
2013,10,03,14,27,13.20
2013,10,03,14,28,13.10
2013,10,03,14,29,13.10
2013,10,03,14,30,13.00
2013,10,03,14,31,12.90
2013,10,03,14,32,12.80
2013,10,03,14,33,12.70
2013,10,03,14,34,12.70
2013,10,03,14,35,12.70
2013,10,03,14,36,12.70
2013,10,03,14,37,12.70
2013,10,03,14,38,12.80
2013,10,03,14,39,12.90
2013,10,03,14,40,12.90
2013,10,03,14,41,13.10
2013,10,03,14,42,13.10
2013,10,03,14,43,13.20
2013,10,03,14,44,13.20
2013,10,03,14,45,13.30
2013,10,03,14,46,13.30
2013,10,03,14,47,13.30
2013,10,03,14,48,13.30
2013,10,03,14,49,13.40
2013,10,03,14,50,13.40
2013,10,03,14,51,13.40
2013,10,03,14,52,13.40
2013,10,03,14,53,13.40
2013,10,03,14,54,13.50
2013,10,03,14,55,13.50
2013,10,03,14,56,13.50
2013,10,03,14,57,13.50
2013,10,03,14,58,13.50
2013,10,03,14,59,13.40
2013,10,03,15,00,13.40
2013,10,03,15,01,13.40
2013,10,03,15,02,13.40
2013,10,03,15,03,13.40
2013,10,03,15,04,13.40
2013,10,03,15,05,13.40
2013,10,03,15,06,13.20
2013,10,03,15,07,13.10
2013,10,03,15,08,13.10
2013,10,03,15,09,13.00
2013,10,03,15,10,12.90
2013,10,03,15,11,12.80
2013,10,03,15,12,12.70
2013,10,03,15,13,12.70
2013,10,03,15,14,12.70
2013,10,03,15,15,12.70
2013,10,03,15,16,12.70
2013,10,03,15,17,12.70
2013,10,03,15,18,12.60
2013,10,03,15,19,12.60
2013,10,03,15,20,12.60
2013,10,03,15,21,12.60
2013,10,03,15,22,12.60
2013,10,03,15,23,12.60
2013,10,03,15,24,12.60
2013,10,03,15,25,12.60
2013,10,03,15,26,12.60
2013,10,03,15,27,12.70
2013,10,03,15,28,12.70
2013,10,03,15,29,12.80
2013,10,03,15,30,12.80
2013,10,03,15,31,12.80
2013,10,03,15,32,12.80
2013,10,03,15,33,12.90
2013,10,03,15,34,12.80
2013,10,03,15,35,12.90
2013,10,03,15,36,12.90
2013,10,03,15,37,12.90
2013,10,03,15,38,13.00
2013,10,03,15,39,13.00
2013,10,03,15,40,12.90
2013,10,03,15,41,12.90
2013,10,03,15,42,12.90
2013,10,03,15,43,12.90
2013,10,03,15,44,13.00
2013,10,03,15,45,13.00
2013,10,03,15,46,12.90
2013,10,03,15,47,12.90
2013,10,03,15,48,12.80
2013,10,03,15,49,12.80
2013,10,03,15,50,12.80
2013,10,03,15,51,12.80
2013,10,03,15,52,12.80
2013,10,03,15,53,12.80
2013,10,03,15,54,12.80
2013,10,03,15,55,12.80
2013,10,03,15,56,12.80
2013,10,03,15,57,12.70
2013,10,03,15,58,12.70
2013,10,03,15,59,12.70
2013,10,03,16,00,12.60
2013,10,03,16,01,12.60
2013,10,03,16,02,12.60
2013,10,03,16,03,12.70
2013,10,03,16,04,12.70
2013,10,03,16,05,12.70
2013,10,03,16,06,12.70
2013,10,03,16,07,12.70
2013,10,03,16,08,12.70
2013,10,03,16,09,12.70
2013,10,03,16,10,12.60
2013,10,03,16,11,12.60
2013,10,03,16,12,12.50
2013,10,03,16,13,12.40
2013,10,03,16,14,12.40
2013,10,03,16,15,12.40
2013,10,03,16,16,12.30
2013,10,03,16,17,12.30
2013,10,03,16,18,12.30
2013,10,03,16,19,12.30
2013,10,03,16,20,12.20
2013,10,03,16,21,12.20
2013,10,03,16,22,12.30
2013,10,03,16,23,12.30
2013,10,03,16,24,12.20
2013,10,03,16,25,12.20
2013,10,03,16,26,12.20
2013,10,03,16,27,12.20
2013,10,03,16,28,12.20
2013,10,03,16,29,12.20
2013,10,03,16,30,12.20
2013,10,03,16,31,12.20
2013,10,03,16,32,12.20
2013,10,03,16,33,12.20
2013,10,03,16,34,12.20
2013,10,03,16,35,12.20
2013,10,03,16,36,12.20
2013,10,03,16,37,12.20
2013,10,03,16,38,12.20
2013,10,03,16,39,12.20
2013,10,03,16,40,12.20
2013,10,03,16,41,12.20
2013,10,03,16,42,12.30
2013,10,03,16,43,12.30
2013,10,03,16,44,12.30
2013,10,03,16,45,12.30
2013,10,03,16,46,12.30
2013,10,03,16,47,12.40
2013,10,03,16,48,12.40
2013,10,03,16,49,12.40
2013,10,03,16,50,12.40
2013,10,03,16,51,12.40
2013,10,03,16,52,12.40
2013,10,03,16,53,12.40
2013,10,03,16,54,12.40
2013,10,03,16,55,12.30
2013,10,03,16,56,12.30
2013,10,03,16,57,12.30
2013,10,03,16,58,12.20
2013,10,03,16,59,12.20
2013,10,03,17,00,12.20
2013,10,03,17,01,12.10
2013,10,03,17,02,12.10
2013,10,03,17,03,12.10
2013,10,03,17,04,12.10
2013,10,03,17,05,12.10
2013,10,03,17,06,12.10
2013,10,03,17,07,12.10
2013,10,03,17,08,12.10
2013,10,03,17,09,12.10
2013,10,03,17,10,12.10
2013,10,03,17,11,12.10
2013,10,03,17,12,12.10
2013,10,03,17,13,12.10
2013,10,03,17,14,12.10
2013,10,03,17,15,12.10
2013,10,03,17,16,12.10
2013,10,03,17,17,12.10
2013,10,03,17,18,12.10
2013,10,03,17,19,12.00
2013,10,03,17,20,12.10
2013,10,03,17,21,12.00
2013,10,03,17,22,12.00
2013,10,03,17,23,11.90
2013,10,03,17,24,11.90
2013,10,03,17,25,11.90
2013,10,03,17,26,11.80
2013,10,03,17,27,11.80
2013,10,03,17,28,11.70
2013,10,03,17,29,11.70
2013,10,03,17,30,11.70
2013,10,03,17,31,11.70
2013,10,03,17,32,11.60
2013,10,03,17,33,11.60
2013,10,03,17,34,11.60
2013,10,03,17,35,11.60
2013,10,03,17,36,11.60
2013,10,03,17,37,11.60
2013,10,03,17,38,11.50
2013,10,03,17,39,11.50
2013,10,03,17,40,11.50
2013,10,03,17,41,11.50
2013,10,03,17,42,11.50
2013,10,03,17,43,11.40
2013,10,03,17,44,11.40
2013,10,03,17,45,11.40